Regional Weather Roundup
Issued by NWS

Home | Current Version | Previous Version | Graphics & Text | Print | Product List | Glossary On
Versions: 1 2 3 4 5 6 7 8 9 10 11 12 13 14 15 16 17 18 19 20 21 22 23 24 25 26 27 28 29 30 31 32 33 34 35 36 37 38 39 40 41 42 43 44 45 46 47 48 49 50
000
ASUS45 KBOU 051107
RWRCO

WEATHER ROUNDUP FOR COLORADO
NATIONAL WEATHER SERVICE DENVER/BOULDER CO
400 AM MST FRI FEB 05 2016

NOTE: "FAIR" INDICATES FEW OR NO CLOUDS BELOW 12000 FEET WITH NO
SIGNIFICANT WEATHER AND/OR OBSTRUCTIONS TO VISIBILITY.

COZ001>005-013-030-031-051200-
...NORTHWEST COLORADO...

CITY           SKY/WX    TMP DP  RH WIND       PRES   REMARKS
CRAIG          LGT SNOW  14  11  87 CALM      30.36R FOG
HAYDEN         CLOUDY    12   9  85 NE3       30.33S
MEEKER         CLOUDY     7   5  91 NE5       30.36R WCI  -2
MOUNT WERNER   NOT AVBL
STEAMBOAT SPGS CLOUDY     8   6  89 CALM      30.32R
WALDEN         CLOUDY    10   5  79 SE6       30.25R WCI   1
$$

COZ006>008-011-051200-
...WEST CENTRAL VALLEYS...

CITY           SKY/WX    TMP DP  RH WIND       PRES   REMARKS
GRAND JUNCTION CLOUDY    15  14  95 E3        30.47S FOG
MONTROSE       CLOUDY    11   7  84 CALM      30.45R
EAGLE          CLOUDY     3   1  92 CALM      30.37S
RIFLE          LGT SNOW  15  11  83 S3        30.43R FOG
DELTA          LGT SNOW  17  13  86 NE5       30.47R WCI  10
NUCLA          CLOUDY    10   5  79 E7        30.45R WCI   0
$$

COZ017>023-064>068-051200-
...SOUTHWEST COLORADO...

CITY           SKY/WX    TMP DP  RH WIND       PRES   REMARKS
DURANGO        CLOUDY     1  -4  79 N5        30.28R WCI  -9
CORTEZ         CLOUDY     3  -2  79 VRB7      30.36R WCI  -9
PAGOSA SPRINGS CLOUDY    -5 -11  76 CALM      30.24S
TELLURIDE      CLOUDY    16   6  66 N6G16     30.24S WCI   7
WOLF CREEK PAS CLOUDY     1  -4  78 NE24G33   30.10F WCI -22
$$

COZ009-010-012-014-032>034-037-058>063-051200-
...CENTRAL COLORADO...

CITY           SKY/WX    TMP DP  RH WIND       PRES   REMARKS
ASPEN          LGT SNOW  11   7  84 N5        30.27S FOG     WCI   3
BUENA VISTA    CLOUDY    11   1  65 W12       30.19S WCI  -4
COPPER MTN     CLOUDY     5  -4  66 NW16G25   30.08S WCI -14
BERTHOUD PASS  CLOUDY    -4 -15  59 NW22G32   30.05R WCI -28
COTTONWOOD PAS CLOUDY    12   3  67 NW8       30.12F WCI   1
GUNNISON       CLOUDY    -9 -15  77 CALM      30.34R
KREMMLING      LGT SNOW   3  -2  78 CALM      30.31S
LEADVILLE      LGT SNOW   6   1  80 NW9       30.15R WCI  -8
MONARCH PASS   CLOUDY     0  -6  78 MISG      30.17S
SALIDA         CLOUDY    13   2  60 W7        30.29R WCI   3
SUNLIGHT       LGT SNOW N/A N/A N/A W5          N/A
WILKERSON PASS CLOUDY     3  -4  72 N12G25    30.07R WCI -13
$$

COZ069>075-051200-
...SAN LUIS VALLEY/SANGRE DE CRISTO MOUNTAINS...

CITY           SKY/WX    TMP DP  RH WIND       PRES   REMARKS
ALAMOSA        CLOUDY    -7 -12  79 W6        30.20S WCI -20
LA VETA PASS   CLOUDY     5   1  85 MISG      30.07R
SAGUACHE       CLOUDY    14   3  62 N13       30.21R WCI   0
$$

COZ035-036-038>040-051200-
...NORTHERN COLORADO FRONT RANGE...

CITY           SKY/WX    TMP DP  RH WIND       PRES   REMARKS
DENVER INTL AP CLOUDY    25  14  63 SW6       30.20R WCI  18
DMNS CITY PARK   N/A     24  15  68 N1G10     30.21R
AURORA         CLOUDY    23  15  70 SW3       30.21R
FRONT RANGE AP   N/A     28  14  54 W3G17     30.21R
ERIE MUNI ARPT CLOUDY    19  14  79 CALM      30.22R
BOULDER MUN AP CLOUDY    23  10  58 CALM      30.21R
CENTENNIAL     CLOUDY    26   9  48 NW8       30.19R WCI  18
BROOMFIELD     CLOUDY    28  10  47 NW8       30.20R WCI  20
FORT COLLINS   CLOUDY    19  10  68 CALM      30.22S
LONGMONT       CLOUDY    22  13  68 SW3       30.24R
$$

COZ041-046-047-076>085-087-088-051200-
...PIKES PEAK/PALMER DIVIDE AND SOUTHERN FOOTHILLS...

CITY           SKY/WX    TMP DP  RH WIND       PRES   REMARKS
COLO. SPRINGS  CLOUDY    22  15  75 N9        30.17S WCI  12
A. F. ACADEMY  CLOUDY    18  13  80 N7        30.15R WCI   9
SCHRIEVER AFB  PTSUNNY   22  14  74 N7        30.17S WCI  13
ELLICOTT       NOT AVBL
FALCON         CLOUDY    21  11  65 NW8       30.16S WCI  12
FORT CARSON    CLEAR     22  21  95 SW1       30.17R
LIMON          CLOUDY    20  19  96 CALM      30.19F
MONUMENT HILL  CLOUDY    21  10  63 NW10      30.17R WCI  10
TRINIDAD       LGT SNOW  22  19  89 NW10      30.17S VSB 1   WCI  11
$$

COZ042>045-048>051-090-091-051200-
...NORTHEAST COLORADO...

CITY           SKY/WX    TMP DP  RH WIND       PRES   REMARKS
GREELEY ARPT     N/A     19  16  86 NW5       30.24R WCI  13
AKRON          CLOUDY    21  20  96 W12       30.19S FOG     WCI   9
BURLINGTON     CLOUDY    27  23  85 NW15      30.22R WCI  15
WRAY           LGT SNOW  28  27  95 W7        30.24S WCI  21
STERLING       CLOUDY    23  21  93 CALM      30.22R
HOLYOKE        LGT SNOW  32  30  93 W12       30.21S WCI  23
FORT MORGAN    CLOUDY    22  15  75 W10       30.23R WCI  11
$$

COZ086-089-092>099-051200-
...SOUTHEAST COLORADO...

CITY           SKY/WX    TMP DP  RH WIND       PRES   REMARKS
PUEBLO         CLOUDY    27  23  85 CALM      30.21F
LA JUNTA       LGT SNOW  27  24  89 NW12      30.21S FOG     WCI  17
LAMAR          CLOUDY    28  16  60 NE8       30.20R WCI  20
SPRINGFIELD      N/A     22  15  75 N13       30.13R WCI  10
$$



USA.gov is the U.S. government's official web portal to all federal, state and local government web resources and services.